This demonstration page uses our WeatherBlox Daily Observations layout. Learn more.

Left ArrowRight Arrow

39.51506, -84.39828

Hourly Observations for March 27, 2020

Temp ( °F °C ) Dew Point ( °F °C ) Humidity (%) Winds ( mph kmh ) Pressure ( in mb ) Visibility ( mi km ) Precip ( " mm )
12:15 am 00:15 Cloudy 58 14.7 53 11.9 83 83 NNE 12 19 29.79 1009 10 16.0934 0 0
12:35 am 00:35 Partly Cloudy 58 14.2 53 11.8 86 86 N 9 15 29.81 1009 10 16.0934 0 0
12:55 am 00:55 Partly Cloudy 57 14 54 12 88 88 NNE 8 13 29.81 1009 10 16.0934 0 0
1:15 am 01:15 Partly Cloudy 57 13.7 53 11.9 89 89 NNE 5 7 29.81 1009 10 16.0934 0 0
1:35 am 01:35 Cloudy 56 13.5 54 12 91 91 NNE 3 6 29.82 1010 10 16.0934 0 0
1:55 am 01:55 Cloudy 57 13.7 54 12.1 90 90 NE 5 7 29.82 1010 10 16.0934 0 0
2:15 am 02:15 Cloudy 56 13.5 54 12 91 91 NE 5 7 29.82 1010 10 16.0934 0 0
2:35 am 02:35 Cloudy 57 13.7 53 11.9 89 89 NNE 6 9 29.83 1010 10 16.0934 0 0
2:55 am 02:55 Cloudy 57 13.7 53 11.8 88 88 NE 7 11 29.83 1010 10 16.0934 0 0
3:15 am 03:15 Cloudy 56 13.5 53 11.6 88 88 NNE 7 11 29.83 1010 10 16.0934 0 0
3:35 am 03:35 Cloudy 56 13.1 52 11.3 89 89 ENE 9 15 29.83 1010 10 16.0934 0 0
3:55 am 03:55 Cloudy 55 12.8 52 11.1 90 90 ENE 8 13 29.83 1010 10 16.0934 0 0
4:15 am 04:15 Cloudy 55 12.6 51 10.8 89 89 NE 8 13 29.83 1010 10 16.0934 0 0
4:35 am 04:35 Cloudy 55 12.5 51 10.6 88 88 NE 6 9 29.83 1010 10 16.0934 0 0
4:55 am 04:55 Cloudy 54 12.4 51 10.6 89 89 NE 6 9 29.85 1011 10 16.0934 0 0
5:15 am 05:15 Cloudy 54 12.2 51 10.7 91 91 NE 9 15 29.85 1011 10 16.0934 0 0
5:35 am 05:35 Cloudy 54 12.2 51 10.7 91 91 NE 6 9 29.86 1011 10 16.0934 0 0
5:55 am 05:55 Cloudy 54 12.2 51 10.5 89 89 NE 8 13 29.85 1011 10 16.0934 0 0
6:15 am 06:15 Cloudy 54 12.1 51 10.4 89 89 ENE 6 9 29.83 1010 10 16.0934 0 0
6:35 am 06:35 Cloudy 54 12.1 51 10.4 89 89 ENE 8 13 29.85 1011 10 16.0934 0 0
6:55 am 06:55 Cloudy 54 12.2 51 10.5 89 89 E 5 7 29.86 1011 10 16.0934 0 0
7:15 am 07:15 Cloudy 54 12.2 51 10.4 89 89 ENE 5 7 29.87 1012 10 16.0934 0 0
7:35 am 07:35 Cloudy 54 12.1 51 10.4 89 89 E 3 6 29.87 1012 10 16.0934 0 0
7:55 am 07:55 Cloudy 54 12.1 51 10.5 90 90 NNE 3 6 29.91 1013 10 16.0934 0 0
8:15 am 08:15 Cloudy with Light Rain 54 12.1 51 10.6 91 91 E 3 6 29.91 1013 5 8.0467 0 0
8:35 am 08:35 Cloudy with Rain 53 11.9 52 10.9 94 94 Calm 29.92 1013 3 4.82802 0 0
8:55 am 08:55 Cloudy with Rain 53 11.7 52 11.2 97 97 ENE 3 6 29.89 1012 2.5 4.02335 0 0
9:15 am 09:15 Cloudy with Light Rain 53 11.5 52 11.1 97 97 NE 5 7 29.9 1012 3.5 5.63269 0 0
9:35 am 09:35 Cloudy with Rain 53 11.6 52 11.2 97 97 NNE 7 11 29.92 1013 2.5 4.02335 0 0
9:55 am 09:55 Cloudy with Light Rain 53 11.6 52 11.2 97 97 NNE 8 13 29.92 1013 3 4.82802 0 0
10:15 am 10:15 Cloudy with Rain 53 11.7 52 11.2 97 97 NE 6 9 29.91 1013 3 4.82802 0 0
10:35 am 10:35 Cloudy with Light Rain 53 11.6 52 11.2 97 97 NNE 5 7 29.92 1013 3 4.82802 0 0
10:55 am 10:55 Cloudy with Light Rain 54 12 53 11.6 97 97 NE 8 13 29.88 1012 3 4.82802 0 0
11:15 am 11:15 Cloudy with Light Rain 54 12.1 53 11.4 96 96 ESE 3 6 29.9 1013 4 6.43736 0 0
11:35 am 11:35 Cloudy with Light Rain 54 12.4 53 11.9 97 97 E 10 17 29.84 1011 3.5 5.63269 0 0
11:55 am 11:55 Cloudy with Light Rain 55 12.9 54 12.3 96 96 ESE 7 11 29.85 1011 7 11.26538 0 0
12:15 pm 12:15 Cloudy with Light Rain 56 13.2 55 12.5 96 96 E 5 7 29.86 1011 10 16.0934 0 0
12:35 pm 12:35 Cloudy 57 13.8 55 12.9 94 94 Calm 29.85 1011 7 11.26538 0 0
12:55 pm 12:55 Mostly Cloudy with Light Rain 57 14.1 55 12.9 93 93 E 6 9 29.85 1011 7 11.26538 0 0
1:15 pm 13:15 Cloudy with Light Rain 58 14.6 56 13.3 92 92 NE 6 9 29.84 1010 10 16.0934 0 0
1:35 pm 13:35 Cloudy 58 14.6 56 13.3 92 92 NE 6 9 29.84 1010 10 16.0934 0 0
1:55 pm 13:55 Cloudy with Light Rain 58 14.7 56 13.4 92 92 NE 7 11 29.86 1011 10 16.0934 0 0
2:15 pm 14:15 Cloudy 58 14.4 55 13 91 91 NNE 8 13 29.88 1012 10 16.0934 0 0
2:35 pm 14:35 Cloudy with Light Rain 56 13.6 55 12.6 94 94 NE 8 13 29.88 1012 4 6.43736 0 0
2:55 pm 14:55 Cloudy with Rain 56 13.4 55 12.8 96 96 N 6 9 29.9 1013 3.5 5.63269 0 0
3:15 pm 15:15 Cloudy with Light Rain 58 14.2 57 13.8 97 97 NNE 10 17 29.87 1011 4 6.43736 0 0
3:35 pm 15:35 Cloudy 57 14.1 56 13.3 95 95 NE 9 15 29.88 1012 7 11.26538 0 0
3:55 pm 15:55 Cloudy 57 14 56 13.1 94 94 NE 12 19 29.87 1011 10 16.0934 0 0
4:15 pm 16:15 Cloudy 57 14.1 56 13.1 94 94 ENE 9 15 29.86 1011 10 16.0934 0 0
4:35 pm 16:35 Cloudy 58 14.4 56 13.1 92 92 E 8 13 29.84 1010 10 16.0934 0 0
4:55 pm 16:55 Cloudy 58 14.5 55 13 91 91 ENE 12 19 29.84 1010 10 16.0934 0 0
5:15 pm 17:15 Cloudy 58 14.7 56 13.1 90 90 ENE 12 19 29.85 1011 10 16.0934 0 0
5:35 pm 17:35 Cloudy 59 14.8 55 13 89 89 NE 12 19 29.87 1011 10 16.0934 0 0
5:55 pm 17:55 Cloudy 58 14.5 55 12.8 90 90 NE 12 19 29.86 1011 10 16.0934 0 0
6:15 pm 18:15 Cloudy 58 14.2 55 12.6 90 90 NE 9 15 29.87 1011 10 16.0934 0 0
6:35 pm 18:35 Cloudy 58 14.4 55 12.8 90 90 ENE 9 15 29.86 1011 10 16.0934 0 0
6:55 pm 18:55 Cloudy 58 14.4 55 12.8 90 90 ENE 8 13 29.86 1011 10 16.0934 0 0
7:15 pm 19:15 Cloudy 58 14.3 55 12.7 90 90 ENE 8 13 29.86 1011 10 16.0934 0 0
7:35 pm 19:35 Cloudy 58 14.2 55 12.5 90 90 ENE 6 9 29.87 1011 10 16.0934 0 0
7:55 pm 19:55 Cloudy 57 14.1 55 12.5 90 90 ENE 7 11 29.88 1012 10 16.0934 0 0
8:15 pm 20:15 Cloudy 57 14 54 12.4 90 90 E 9 15 29.87 1011 10 16.0934 0 0
8:35 pm 20:35 Cloudy 57 13.8 55 12.5 92 92 ENE 5 7 29.88 1012 10 16.0934 0 0
8:55 pm 20:55 Cloudy 57 13.9 55 12.5 91 91 ENE 3 6 29.88 1012 10 16.0934 0 0
9:15 pm 21:15 Cloudy 57 13.9 55 12.5 91 91 E 3 6 29.89 1012 10 16.0934 0 0
9:35 pm 21:35 Cloudy 57 14 54 12.4 90 90 ENE 3 6 29.9 1012 10 16.0934 0 0
9:55 pm 21:55 Cloudy 57 13.9 54 12.4 91 91 ENE 5 7 29.89 1012 10 16.0934 0 0
10:15 pm 22:15 Partly Cloudy 56 13.5 54 12.2 92 92 NE 6 9 29.88 1012 10 16.0934 0 0
10:35 pm 22:35 Cloudy 56 13.6 54 12.3 92 92 NE 6 9 29.88 1012 10 16.0934 0 0
10:55 pm 22:55 Cloudy 56 13.6 54 12.3 92 92 NE 7 11 29.88 1012 10 16.0934 0 0
11:15 pm 23:15 Cloudy 57 13.7 54 12.4 92 92 NE 5 7 29.89 1012 10 16.0934 0 0
11:35 pm 23:35 Mostly Cloudy 56 13.6 54 12.4 93 93 E 6 9 29.86 1011 10 16.0934 0 0
11:55 pm 23:55 Mostly Cloudy 56 13.6 54 12.4 93 93 Calm 29.87 1012 10 16.0934 0 0

Powered by AerisWeather